Location: Dampvalley
(47.9094°N, 6.1967°E)
Time: 05:50:06
(UTC+00:00)

Envisat - Pass Details

Date: 13 December 2022
Orbit: 763 x 765 km, 98.2° (Epoch: 27 January)

Event Time Altitude Azimuth Distance (km) Brightness Sun altitude
Rises 04:45:09 0° 7° (N) 3,245 6.2 -24.2°
Reaches altitude 10° 04:47:36 10° 359° (N) 2,314 5.4 -23.8°
Enters shadow 04:48:32 15° 354° (N) 1,985 5.0 -23.6°
